STARLINK-1272, 45386

Orbit data source: Space-Track

STARLINK-1272, 45386 is a payload satellite owned by SpaceX/Seattle (US) in LEO that was launched on Wed, 18 Mar 2020 UTC via an FALCON 9 launch vehicle from the Air Force Eastern Test Range (AFETR). Payload-class satellites include a variety of spacecraft equipped with specific instruments for various scientific and technological missions. These include communications satellites like Starlink; space stations such as the ISS; scientific satellites like the Hubble; Earth observation satellites from companies like Planet Labs, Umbra, and HawkEye 360; GPS; miniature CubeSats for education and research; and military/defense satellites.

Loading next visibility...
Identifier
45386, 2020-019AC
Orbit
LEO
Country
Flag of USUS
Related business
Manufacturer
SpaceX/Seattle
Mission
Partially operational Commercial Communications
Bus & Motor
STARLINK, Unknown motor
Mass
260 kg wet, ~248 kg dry
Launch date (UTC)
2020-03-18 (6 years ago)
Launch vehicle
FALCON 9
Launch site
Air Force Eastern Test Range (AFETR)
Object type
Payload
Rocket body
Debris
Shape & HBR
Box + 1 Pan, 10.1 m
Radar Cross Section
13.562 m², Large (>1 m²)

Expand to show TLE details & history
Last TLE update: 3 days ago

TLE from 3 days ago
0 STARLINK-1272
1 45386U 20019AC  26170.86628083  .00057563  00000-0  44751-3 0  9995
2 45386  53.0393 328.4884 0004789 128.5329 231.6118 15.71214017346527
Epoch: 2026-06-19T20:47Z
TLE epoch observation values (Epoch: 2026-06-19T20:47:26.663Z)
Latitude
-0.00002°
Longitude
108.53818°
Altitude
358.332 km
Speed
7.694 km/s
True Right ascension
21h 53m 57s
True Declination
0° 00' 00"
Sunlit
Object was in full shadow at epoch
Visualization orbit readout
Latitude
Unknown
Longitude
Unknown
Altitude
Unknown
Speed
Unknown
Apparent Right ascension
Unknown
Apparent Declination
Unknown
Sunlit
N/A
Visualization observer readout
Local Sidereal Time
00:50:02
Azimuth
Unknown
Elevation
Unknown
Doppler factor
Unknown
Orbital elements
Apogee altitude
358.932 km
Perigee altitude
352.482 km
Semi-major axis
6,733.844 km
Eccentricity
0.00048
Inclination
53.0393°
RAAN
328.4884°
Arg. of periapsis
128.5329°
True anomaly
231.5688°
Mean anomaly
231.6118°
Eccentric anomaly
231.5903°
Mean motion
3.92779 °/min
Orbital period
91.65 mins
BSTAR
0.00044751
Loading maneuver chart data...
Computing Atmospheric mass density...

Documentation

Showing up to 5 results
|